Starlink 11441

operational
NORAD ID: 62413 Int'l Des: 2024-249 Owner: SPXS Country: US Constellation: starlink
LEOCIRCULAR

关于 Starlink 11441

正在加载描述...

实时位置

正在加载3D地球...

即将过境

高度历史

Altitude vs Time

uPlot chart will show altitude changes over time

两行轨道根数

1 62413U 24249E 25354.52763124 .00186135 00000-0 14156-2 0 9999
2 62413 43.0006 284.5368 0001779 281.0449 79.0219 15.70945347 57037
Epoch: Dec 20, 2025 • Age: 11 hours

当前状态

高度 355.5 km
速度 7.70 km/s
星下点 20.63°N, 136.43°W
发射日期 Dec 23, 2024
运行时间 0.9 years
类型 internet

技术详情

分类 Payload
质量 960.00 kg
干质量 910.00 kg
总质量 960.00 kg
长度 0.30 m
直径 4.10 m
跨度 29.00 m
形状 Box + pan
制造商 SPXS
平台类型 Starlink V2MD
阶段状态 In Orbit
所有者/国家 SPXS/US

大型星座

Loading constellations...